Regional Weather Roundup
Issued by NWS Grand Forks, ND

Home | Current Version | Previous Version | Text Only | Print | Product List | Glossary Off
Versions: 1 2 3 4 5 6 7 8 9 10 11 12 13 14 15 16 17 18 19 20 21 22 23 24 25 26 27 28 29 30 31 32 33 34 35 36 37 38 39 40 41 42 43 44 45 46 47 48 49 50

000
ASUS43 KFGF 301231
RWRFGF
PRAIRIE TO PINES  WEATHER ROUNDUP
NATIONAL WEATHER SERVICE EASTERN NORTH DAKOTA/GRAND FORKS ND
700 AM CDT SUN APR 30 2017

 **SATELLITE DATA USED TO AUGMENT SKY COVER AT AUTOMATED STATIONS**
 *****  WEATHER ACROSS EASTERN NORTH DAKOTA  *****

CITY           SKY/WX    TMP DP  RH WIND       PRES   REMARKS
GRAND FORKS    MOCLDY    38  31  76 SE6       30.16F
6HR MIN TEMP:  36; 6HR MAX TEMP:  48;

GRAND FRKS AFB FAIR      37  27  68 S7        30.15F
DEVILS LAKE    FAIR      41  28  60 SW3       30.13
6HR MIN TEMP:  37; 6HR MAX TEMP:  45;

FARGO          FAIR      34  27  75 NE5       30.14F
WAHPETON ARPT  FAIR      37  25  60 NE7       30.11F
$$

 ***** WEATHER ACROSS CENTRAL AND WESTERN NORTH DAKOTA  *****

CITY           SKY/WX    TMP DP  RH WIND       PRES   REMARKS
BISMARCK       FAIR      32  27  81 NE7       30.11F
6HR MIN TEMP:  28; 6HR MAX TEMP:  43;

MINOT          FAIR      44  22  41 S13       30.05F
6HR MIN TEMP:  43; 6HR MAX TEMP:  52;

JAMESTOWN      FAIR      34  30  85 N6        30.11F
6HR MIN TEMP:  29; 6HR MAX TEMP:  41;

MINOT AFB      FAIR      39  24  55 SW10      30.04F
GARRISON         N/A     34  21  59 S3        30.07F
WILLISTON      FAIR      32  25  75 S5        30.03S
6HR MIN TEMP:  28; 6HR MAX TEMP:  45;

DICKINSON      FAIR      28  19  69 S7        30.05F WCI  21
6HR MIN TEMP:  27; 6HR MAX TEMP:  34;

HETTINGER      FAIR      22  17  81 NW3       30.08F
6HR MIN TEMP:  20; 6HR MAX TEMP:  39;

$$

 *****  OTHER AIRPORT OBSERVATIONS IN OUR AREA  *****

CITY           SKY/WX    TMP DP  RH WIND       PRES   REMARKS
WALHALLA       NOT AVBL
GRAFTON AIRPOR FAIR      36  32  87 S5        30.17S
VALLEY CITY AR FAIR      36  27  69 N5        30.14S
CANDO          NOT AVBL
CAVALIER APRT  FAIR      36  28  75 CALM      30.14S
GWINNER        SUNNY     36  32  87 MISG      30.10F
SHEYENNE NWR     N/A     35  24  65 E8        29.95S
ROLLA          FAIR      37  27  65 S9        30.09F
 ***** THE ABOVE OBSERVATIONS ARE NON NWS ARE NOT QUALITY
       CONTROLLED AND MAY MIS-REPORT RAIN FOR SNOW...
$$

  *****  WEATHER ACROSS NORTHERN MINNESOTA  *****

CITY           SKY/WX    TMP DP  RH WIND       PRES   REMARKS
FLAG ISLAND    FAIR      39  30  70 SE9       30.20S
WARROAD        FAIR      37  28  70 S6        30.20S
ROSEAU         FAIR      39  30  70 S7        30.19S
HALLOCK        FAIR      37  30  75 S10       30.16S
THF RVR FALLS  FAIR      37  27  67 E5        30.19F
6HR MIN TEMP:  36; 6HR MAX TEMP:  46;

BAUDETTE       FAIR      35  22  58 SE7       30.22R
6HR MIN TEMP:  33; 6HR MAX TEMP:  39;

WASKISH        FAIR      36  27  69 CALM      30.21R
CROOKSTON      FAIR      39  28  65 SE3       30.18R
STEPHEN NDAWN    N/A     39  28  65 SE7         N/A
GREENBUSH NDAW   N/A     36  30  80 S5          N/A
$$
  *****  WEATHER ACROSS CENTRAL AND WEST MINNESOTA  *****

CITY           SKY/WX    TMP DP  RH WIND       PRES   REMARKS
FOSSTON        FAIR      34  25  69 CALM      30.18S
BEMIDJI        FAIR      35  24  64 NE3       30.17F
PARK RAPIDS    FAIR      40  18  41 NE6       30.14F
6HR MIN TEMP:  39; 6HR MAX TEMP:  44;

ELBOW LAKE     FAIR      40  26  57 NE6       30.08F
6HR MIN TEMP:  39; 6HR MAX TEMP:  46;

WADENA         FAIR      36  21  55 NE7       30.10F
DETROIT LAKES  FAIR      37  25  60 NE5       30.13F
MOORHEAD       FAIR      36  27  69 E6        30.14F
FERGUS FALLS   FAIR      37  25  60 NE5       30.11F
MORRIS MN      FAIR      39  27  60 NE7       30.05F
STAPLES        FAIR      36  19  51 NE6       30.11F
$$
  *****  WEATHER ELSEWHERE ACROSS MINNESOTA  *****

CITY           SKY/WX    TMP DP  RH WIND       PRES   REMARKS
DULUTH         FAIR      38  15  39 E13       30.16F
6HR MIN TEMP:  35; 6HR MAX TEMP:  38;

INTRNTL FALLS  FAIR      30  23  75 CALM      30.23S
6HR MIN TEMP:  27; 6HR MAX TEMP:  37;

ELY            FAIR      28  25  86 CALM      30.21F
CLOQUET        FAIR      37  12  35 E9G16     30.14F
WHEATON        FAIR      37  27  65 N7        30.11F
BRAINERD       FAIR      37  19  48 NE8       30.13F
6HR MIN TEMP:  36; 6HR MAX TEMP:  40;

HIBBING        FAIR      31  18  58 NE3       30.19F
6HR MIN TEMP:  25; 6HR MAX TEMP:  32;

ALEXANDRIA     FAIR      39  23  52 NE9       30.08F
6HR MIN TEMP:  38; 6HR MAX TEMP:  45;

SAINT CLOUD    FAIR      39  21  48 NE10      30.08F
6HR MIN TEMP:  39; 6HR MAX TEMP:  43;

MINNEAPOLIS    CLOUDY    44  23  43 E14       30.04F
6HR MIN TEMP:  44; 6HR MAX TEMP:  47;

$$

  *****  WEATHER ACROSS SOUTH DAKOTA  *****

CITY           SKY/WX    TMP DP  RH WIND       PRES   REMARKS
SIOUX FALLS    CLOUDY    44  30  57 NE10      29.97F
6HR MIN TEMP:  43; 6HR MAX TEMP:  46;

BROOKINGS      FAIR      38  25  59 NE9       30.01F
WATERTOWN      FAIR      34  24  67 N9        30.04F
6HR MIN TEMP:  34; 6HR MAX TEMP:  45;

HURON          FAIR      38  27  64 NE10      30.05S
6HR MIN TEMP:  38; 6HR MAX TEMP:  43;

SISSETON         N/A     37  28  70 NE7       30.09F
ABERDEEN       FAIR      31  26  82 N3        30.08F
6HR MIN TEMP:  30; 6HR MAX TEMP:  40;

MITCHELL       FAIR      39  29  67 N9        30.03S
PIERRE         FAIR      35  23  61 N8        30.06S
6HR MIN TEMP:  28; 6HR MAX TEMP:  38;

MOBRIDGE       FAIR      31  21  66 NW3       30.07F
RAPID CITY     FAIR      32  20  61 NW10      30.06F WCI  24
6HR MIN TEMP:  28; 6HR MAX TEMP:  34;

$$

  *****  SOME WEATHER IN NEARBY STATES *****

CITY           SKY/WX    TMP DP  RH WIND       PRES   REMARKS
GLASGOW MT     FAIR      36  29  75 SE13      29.93F
6HR MIN TEMP:  36; 6HR MAX TEMP:  46;

GREAT FALLS MT CLOUDY    47  28  47 SW16      29.93R
6HR MIN TEMP:  38; 6HR MAX TEMP:  47;

CHEYENNE WY    FAIR      28  14  55 NW14G22   30.04R WCI  17
6HR MIN TEMP:  26; 6HR MAX TEMP:  28;

SCOTTSBLUFF NE FAIR      29  23  78 NW10      30.05F WCI  20
6HR MIN TEMP:  29; 6HR MAX TEMP:  36;

OMAHA NE       CLOUDY    39  35  86 NE17G31   29.77F
6HR MIN TEMP:  39; 6HR MAX TEMP:  41; 6HR PCP:  0.21;

DES MOINES IA  CLOUDY    41  39  93 NE20      29.78F
6HR MIN TEMP:  41; 6HR MAX TEMP:  41; 6HR PCP:  0.01;

DAVENPORT IA   CLOUDY    42  40  92 E24G32    29.79F
6HR MIN TEMP:  42; 6HR MAX TEMP:  44;

CHICAGO IL     LGT RAIN  43  41  93 NE15      29.89F FOG
6HR MIN TEMP:  42; 6HR MAX TEMP:  44; 6HR PCP:  0.08;

EAU CLAIRE WI  CLOUDY    42  24  49 E14G24    30.03F
6HR MIN TEMP:  42; 6HR MAX TEMP:  46;

LA CROSSE WI   CLOUDY    44  31  60 NE8       29.98F
6HR MIN TEMP:  44; 6HR MAX TEMP:  47;

$$

  *****  SOME NATIONAL WEATHER *****

CITY           SKY/WX    TMP DP  RH WIND       PRES   REMARKS
LA GUARDIA NY  CLOUDY    60  38  43 NE10      30.23R
6HR MIN TEMP:  60; 6HR MAX TEMP:  68;

RALEIGH NC     PTSUNNY   72  68  87 S9        30.20R
6HR MIN TEMP:  70; 6HR MAX TEMP:  74;

ATLANTA GA     CLOUDY    70  66  87 SE13G21   30.06F
6HR MIN TEMP:  69; 6HR MAX TEMP:  73;

NEW ORLEANS LA CLOUDY    79  73  82 S25G37    29.78F
6HR MIN TEMP:  78; 6HR MAX TEMP:  79;

OKLAHOMA CITY  CLOUDY    45  43  93 SW17G26   29.55F
6HR MIN TEMP:  45; 6HR MAX TEMP:  47; 6HR PCP:  0.11;

ALBUQUERQUE NM FAIR      36  34  92 SW7       30.04S
6HR MIN TEMP:  36; 6HR MAX TEMP:  37; 6HR PCP: TRACE;

SALT LAKE CITY FAIR      39  29  67 SE9       30.19S
6HR MIN TEMP:  38; 6HR MAX TEMP:  46;

LOS ANGELES CA FAIR      57  41  55 E5        30.04F
6HR MIN TEMP:  57; 6HR M



USA.gov is the U.S. government's official web portal to all federal, state and local government web resources and services.